Regional Weather Roundup
Issued by NWS

Home | Current Version | Previous Version | Graphics & Text | Print | Product List | Glossary Off
Versions: 1 2 3 4 5 6 7 8 9 10 11 12 13 14 15 16 17 18 19 20 21 22 23 24 25 26 27 28 29 30 31 32 33 34 35 36 37 38 39 40 41 42 43 44 45 46 47 48 49 50

000
ASUS43 KMKX 260059
RWRWI

WISCONSIN REGIONAL WEATHER ROUNDUP
NATIONAL WEATHER SERVICE MILWAUKEE/SULLIVAN WI
700 PM CST SUN JAN 25 2015

NOTE: "FAIR" INDICATES FEW OR NO CLOUDS BELOW 12,000 FEET WITH NO
SIGNIFICANT WEATHER AND/OR OBSTRUCTIONS TO VISIBILITY.

WIZ001-002-006>008-014>016-023>028-260200-
NORTHWEST WISCONSIN

CITY           SKY/WX    TMP DP  RH WIND       PRES   REMARKS
SUPERIOR ARPT  MOCLDY    17  13  87 CALM      30.07F
ASHLAND        CLOUDY    13   8  81 CALM      30.08R
HAYWARD        PTCLDY    13   5  70 CALM      30.04R
SIREN          CLOUDY    23  13  63 CALM      30.05S
CUMBERLAND     CLOUDY    18   9  68 CALM      30.03S
RICE LAKE      CLOUDY    19  11  70 CALM      30.06R
CHETEK         CLOUDY    19  11  70 CALM      30.05R
LADYSMITH      MOCLDY    16   9  72 CALM      30.05R
EAU CLAIRE     NOT AVBL
MENOMONIE      PTCLDY    21  12  68 CALM      30.06R
NEW RICHMOND   MOCLDY    17  10  77 CALM      30.06S
OSCEOLA        PTCLDY    20  13  74 SE3       30.09R
$$

WIZ003>005-009-010-017-018-260200-
NORTH CENTRAL WISCONSIN

CITY           SKY/WX    TMP DP  RH WIND       PRES   REMARKS
MANITOWISH WTR CLOUDY    10   4  77 CALM      30.01R
ARBOR VITAE    PTCLDY    15   7  69 CALM      30.00R
WOODRUFF       PTCLDY    15   7  69 CALM      30.00R
RHINELANDER    CLOUDY    14   5  67 CALM      30.00R
EAGLE RIVER    CLOUDY    13   5  69 CALM      29.99R
LAND O LAKES   CLOUDY    11   6  81 CALM      30.00R
PHILLIPS       MOCLDY    12   5  73 CALM      30.01R
TOMAHAWK       CLOUDY    16   6  66 CALM      30.01R
MEDFORD        MOCLDY    17   8  66 CALM      30.01R
MERRILL        CLOUDY    18   7  62 CALM      30.02R
$$

WIZ029-030-035-036-043>047-260200-
CENTRAL WISCONSIN

CITY           SKY/WX    TMP DP  RH WIND       PRES   REMARKS
WAUSAU         CLOUDY    18   6  59 CALM      30.02R
MOSINEE        NOT AVBL
MARSHFIELD     CLOUDY    20   9  62 CALM      30.03R
STEVENS POINT  CLOUDY    13   5  68 CALM      30.03S
WAUPACA        PTCLDY    17   8  68 CALM      30.06S
WAUTOMA        NOT AVBL
WISC RAPIDS    CLOUDY    18   6  59 SE5       30.05R WCI  11
CAMP DOUGLAS   NOT AVBL
$$

WIZ011>013-019>022-031-037>040-048>050-260200-
NORTHEAST WISCONSIN

CITY           SKY/WX    TMP DP  RH WIND       PRES   REMARKS
ANTIGO         CLOUDY    13   6  73 E5        30.00R WCI   5
SHAWANO        CLOUDY    19   8  64 CALM      30.06S
OCONTO         CLEAR     13   6  76 MISG      30.07F
STURGEON BAY   CLEAR     12   5  73 CALM      30.09R
GREEN BAY      PTCLDY    15   8  73 CALM      30.08R
MANITOWOC      NOT AVBL
APPLETON       PTCLDY    18   7  62 E7        30.06R WCI   8
CLINTONVILLE   CLOUDY    16   9  73 CALM      30.05F
OSHKOSH        CLEAR     17   8  67 NE10      30.07R WCI   5
$$

WIZ032>034-041-042-053>061-260200-
SOUTHWEST WISCONSIN

CITY           SKY/WX    TMP DP  RH WIND       PRES   REMARKS
LA CROSSE      MOCLDY    25  14  63 CALM      30.07R
SPARTA         CLOUDY    22  12  66 E3        30.05R
VIROQUA        MOCLDY    19  12  73 E5        30.00S WCI  12
BOSCOBEL       CLEAR     21  12  68 CALM      30.06R
PRAIRIE DU CHI CLEAR     23  12  63 E6        30.04S WCI  16
PLATTEVILLE    CLEAR     18  13  82 N8        30.02S WCI   7
$$

WIZ056-057-062-063-064-067-068-260200-
SOUTH CENTRAL WISCONSIN

CITY           SKY/WX    TMP DP  RH WIND       PRES   REMARKS
REEDSBURG      CLOUDY    20  10  66 NE5       30.04S WCI  14
BARABOO/DELLS  CLOUDY    17  10  75 NE3       30.04S
LONE ROCK      NOT AVBL
MINERAL POINT  PTCLDY    19  12  73 N5        30.01S WCI  13
MADISON        PTCLDY    18  11  74 NE9       30.04R WCI   7
MIDDLETON      CLEAR     20  13  71 NE8       30.04R WCI  11
WATERTOWN      CLEAR     18  13  80 N6        30.03R WCI  10
MONROE         CLEAR     19  14  79 N13       30.00R WCI   7
JANESVILLE     CLEAR     21  10  63 NE7       30.02R WCI  13
$$

WIZ051-052-058>065-066-070>072-260200-
SOUTHEAST WISCONSIN

CITY           SKY/WX    TMP DP  RH WIND       PRES   REMARKS
MILWAUKEE      MOCLDY    25  13  60 NE15G24   30.01R WCI  13
WAUKESHA       CLEAR     18  10  73 NE12      30.02R WCI   5
MILWAUKEE/TIMM NOT AVBL
RACINE         PTCLDY    25  14  63 NE14      30.01R WCI  13
BURLINGTON     CLEAR     19  12  73 N7        29.99S WCI  10
KENOSHA        CLEAR     23  15  71 N9        29.99R WCI  13
FOND DU LAC    CLEAR     17   9  70 N10       30.06R WCI   5
SHEBOYGAN      MOCLDY    19  11  70 N9        30.04R WCI   8
WEST BEND      PTCLDY    19  12  73 N8        30.03R WCI   9
JUNEAU         CLEAR     16  11  81 N9        30.04R WCI   4
$$

LSZ147-162-260200-
LAKE SUPERIOR

STATION/POSITION TIME  TEMP    WIND        PRES    WAVE
                       AIR SEA DIR/SP/G            HT/PER
                 (UTC) (F)     (DEG/KT/KT) (MB)    (FT/S)
DEVILS ISLAND    0000   20     250/  1/  2 1020.1R
PORT WING        0040   19     130/  2/  4 1018.6F
SAXON HARBOR     0000   16      CALM  /  2 1018.3R
$$

LMZ867-665-643>646-260200-
LAKE MICHIGAN

STATION/POSITION TIME  TEMP    WIND        PRES    WAVE
                       AIR SEA DIR/SP/G            HT/PER
                 (UTC) (F)     (DEG/KT/KT) (MB)    (FT/S)
NORTHPORT PIER   0010   18      40/  3/  7 1018.6R
SISTER BAY       0013   10        CALM       N/A
KEWAUNEE LAKESHO 0000   17     340/  7/ 10 1017.2R
SHEBOYGAN LAKESH 0000   24      20/ 22/ 24 1018.1R
PORT WASHINGTON  0000   24      20/ 11/ 19 1017.6R
MILWAUKEE LAKESH 0000   26      20/ 18/ 22   N/A
KENOSHA   LAKESH 0000   27      30/ 19/ 23 1015.2R
$$

TC  - TEMPERATURE IN CELSIUS
VSB - VISIBILITY IN STATUTE MILES
WCI - WIND CHILL INDEX
HX  - HEAT INDEX




USA.gov is the U.S. government's official web portal to all federal, state and local government web resources and services.